This is the latest recevied weather packets stored in our database for station/object OM2RC-6. If no packets are shown the sender has not sent any weather packets the latest 10 day(s).
| Time | Temp. | Humidity | Pressure | Rain* | Wind** | Luminosity | Snow |
|---|---|---|---|---|---|---|---|
| 1777722930 | 22.78° C | 37% | 1023.8 hPa | - | - | - | - |
| 1777722629 | 23.33° C | 36% | 1023.8 hPa | - | - | - | - |
| 1777722328 | 22.78° C | 37% | 1023.8 hPa | - | - | - | - |
| 1777722027 | 25° C | 34% | 1023.8 hPa | - | - | - | - |
| 1777721726 | 25.56° C | 35% | 1023.9 hPa | - | - | - | - |
| 1777721424 | 22.78° C | 39% | 1024.1 hPa | - | - | - | - |
| 1777721123 | 22.78° C | 39% | 1024 hPa | - | - | - | - |
| 1777720822 | 22.78° C | 39% | 1024.1 hPa | - | - | - | - |
| 1777720521 | 23.33° C | 38% | 1024.2 hPa | - | - | - | - |
| 1777720219 | 25° C | 36% | 1024.3 hPa | - | - | - | - |
| 1777719917 | 23.33° C | 40% | 1024.3 hPa | - | - | - | - |
| 1777719315 | 24.44° C | 37% | 1024.5 hPa | - | - | - | - |
| 1777719014 | 24.44° C | 37% | 1024.6 hPa | - | - | - | - |
| 1777718714 | 25° C | 37% | 1024.5 hPa | - | - | - | - |
| 1777718413 | 23.89° C | 38% | 1024.7 hPa | - | - | - | - |
| 1777718112 | 24.44° C | 37% | 1024.7 hPa | - | - | - | - |
| 1777717811 | 22.78° C | 39% | 1024.9 hPa | - | - | - | - |
| 1777717510 | 23.33° C | 38% | 1024.9 hPa | - | - | - | - |
| 1777717209 | 25.56° C | 36% | 1024.9 hPa | - | - | - | - |
| 1777716908 | 25.56° C | 36% | 1025 hPa | - | - | - | - |
| 1777716607 | 25.56° C | 36% | 1025 hPa | - | - | - | - |
| 1777716307 | 26.11° C | 36% | 1025.1 hPa | - | - | - | - |
| 1777716006 | 26.11° C | 35% | 1025.1 hPa | - | - | - | - |
| 1777715705 | 25° C | 37% | 1025.2 hPa | - | - | - | - |
| 1777715404 | 23.33° C | 41% | 1025.4 hPa | - | - | - | - |
* Rain since midnight (hover to see other rain measurements)
** Current wind speed in m/s (hover to see current wind gust speed)